Regional Weather Roundup
Issued by NWS

Home | Current Version | Previous Version | Graphics & Text | Print | Product List | Glossary On
Versions: 1 2 3 4 5 6 7 8 9 10 11 12 13 14 15 16 17 18 19 20 21 22 23 24 25 26 27 28 29 30 31 32 33 34 35 36 37 38 39 40 41 42 43 44 45 46 47 48 49 50
589
ASUS43 KBIS 252310
RWRND

NORTH DAKOTA REGIONAL WEATHER ROUNDUP
NATIONAL WEATHER SERVICE BISMARCK ND
500 PM CST SAT FEB 25 2017

NOTE: "FAIR" INDICATES FEW OR NO CLOUDS BELOW 12,000 FEET WITH NO
SIGNIFICANT WEATHER AND/OR OBSTRUCTIONS TO VISIBILITY.


NDZ001>003-009>011-017-260000-
NORTHWEST NORTH DAKOTA

CITY           SKY/WX    TMP DP  RH WIND       PRES   REMARKS
WILLISTON      SNOW      21  19  92 N21       29.68R VSB 1/2 WCI   5
MINOT          LGT SNOW  21  16  81 N10       29.72F VSB 1   WCI  10
MINOT AFB      LGT SNOW  18  14  86 N9        29.72F FOG     WCI   6
$$

NDZ018>021-031>035-040>046-260000-
SOUTHWEST NORTH DAKOTA

CITY           SKY/WX    TMP DP  RH WIND       PRES   REMARKS
BISMARCK       PTSUNNY   28  21  75 SW7       29.77F
DICKINSON      HVY SNOW  25  21  85 W15       29.66F VSB 1/4 WCI  13
GARRISON         N/A     24  19  81 S8        29.70F WCI  15
HETTINGER ARPT CLOUDY    31  14  49 W14       29.70F
$$

NDZ004>008-012>016-024-026-027-054-260000-
NORTHEAST NORTH DAKOTA

CITY           SKY/WX    TMP DP  RH WIND       PRES   REMARKS
GRAND FORKS    PTCLDY    29  15  56 NW13      29.76F WCI  19
GRND FRKS AFB  CLEAR     28  17  64 NW10      29.76F WCI  18
DEVILS LAKE    FAIR      21  13  71 W14       29.75S WCI   8
$$

NDZ022-023-025-028>030-036>039-047>053-260000-
SOUTHEAST NORTH DAKOTA

CITY           SKY/WX    TMP DP  RH WIND       PRES   REMARKS
FARGO          CLOUDY    31  22  69 W10       29.78F
JAMESTOWN      CLOUDY    26  19  74 W9        29.75F WCI  17
$$





USA.gov is the U.S. government's official web portal to all federal, state and local government web resources and services.